Погода в Таразе

Погода в Таразе : погода сейчас, прогноз погоды и архив. Всё, что Вы хотите узнать о погоде в Таразе!

Поиск расширенной информации на нашем сайте:

Полезная информация:

Другие новости

Новости СМИ2

Главная страница сайта

Новости сайта

03.07.2017

Напоминаем, что на нашем специализированном сайте Метеоцентр.Азия вы можете получить высокодетализированные автоматические прогнозы погоды по пунктам России, СНГ и мира в авиационном формате (включающие направление и скорость ветра, видимость, явления погоды, количество и форму облачности, нижнюю и верхнюю границу облачности).

Рекомендуем:

Погода в Таразе - сегодня

Время (UTC), дата Ветер
(°,м/с) 
Видим.   Явления Облачность Т
(°С)
Тd
(°С)
f(%) Тe
(°С)
Pmin
(гПа)
dP
(гПа)
Po
(мм)
O2
(г/м3)
Тmin Tmax R s Состояние
почвы
00 16.07.19 260 (З) 20000 м    ясно 
+20.5 +7.9 44 +21  1002  0.2  697  260           
03 16.07.19 240 (ЮЗ) 20000 м    ясно 
+28.9 +5.6 23 +29  1000.6  0.6  698  253           
06 16.07.19 270 (З) 20000 м    ясно 
+31.7 +9.8 26 +34  1000.5  0.5  698  250  +19.7         
09 16.07.19 300 (СЗ) 20000 м    ясно 
+35.4 +8.8 20 +36  999.1  -0.5  698  247           
12 16.07.19 320 (СЗ) 20000 м    ясно 
+35.8 +8.9 19 +37  998.6  -0.4  697  247           
15 16.07.19 тихо ()   20000 м    ясно 
+30.4 +7.3 24 +30  1000.5  0.6  698  252    +36.4       
18 16.07.19 210 (ЮЗ) 10 км    ясно 
+25.2 +9 36 +26  1002  0.3  698  256    +36.4       
21 16.07.19 230 (ЮЗ) 10 км    ясно 
+23.1 +8.5 39 +24  1002.5  698  258           
00 17.07.19 200 (Ю) 20000 м    ясно 
+21.9 +9.3 45 +24  1003.1  0.3  698  259           
03 17.07.19 190 (Ю) 20000 м    ясно 
+30 +6.8 23 +30  1002.1  0.8  699  253           
06 17.07.19 010 (С) 20000 м    ясно 
+33.4 +9.7 23 +36  1001.1  -0.1  699  249  +20.6         
09 17.07.19 030 (СВ) 20000 м    ясно 
+36.5 +6.2 16 +37  999.8  -0.6  698  247           
12 17.07.19 080 (В) 20000 м    ясно 
+37.2 +4.3 13 +37  999.4  -0.3  698  247           
15 17.07.19 тихо ()   20000 м    ясно 
+31.5 +5.9 20 +32  1000.9  0.3  698  251    +38       
18 17.07.19 180 (Ю) 10 км    ясно 
+26 +9 34 +27  1002.7  0.4  699  255    +38       
21 17.07.19 230 (ЮЗ) 10 км    ясно 
+23.8 +8.8 38 +25  1002.4  -0.8  698  257           
00 18.07.19 270 (З) 20000 м    ясно 
+20.4 +9.3 49 +22  1003.4  0.2  698  260           
03 18.07.19 тихо ()   20000 м    ясно 
+32.5 +8.4 23 +33  1000.8  0.3  698  250           
06 18.07.19 040 (СВ) 20000 м    ясно 
+36.1 +4.6 14 +36  1000  698  248  +20.3         
09 18.07.19 090 (В) 20000 м    3/0 верхняя 
[Ci fib]
+38.8 +6.8 14 +39  998.3  -1  698  245           
12 18.07.19 350 (С) 20000 м    3/0 верхняя 
[Ci fib]
+39.2 +7 14 +39  998  -0.2  698  245           
15 18.07.19 тихо ()   20000 м    ясно 
+31.9 +5.6 19 +32  1000.4  0.6  698  251    +39.4       
18 18.07.19 230 (ЮЗ) 10 км    ясно 
+26.6 +7.3 29 +27  1001.9  0.3  698  255    +39.4       
21 18.07.19 230 (ЮЗ) 10 км    ясно 
+24.5 +5.5 29 +25  1001.7  -0.7  698  257           
00 19.07.19 250 (З) 20000 м    ясно 
+21.5 +7.4 40 +22  1003  0.5  698  259           
Время (UTC), дата Ветер
(°,м/с) 
Видим.   Явления Облачность Т
(°С)
Тd
(°С)
f(%) Тe
(°С)
Pmin
(гПа)
dP
(гПа)
Po
(мм)
O2
(г/м3)
Тmin Tmax R s Состояние
почвы

Для получения пояснительной информации подведите курсор к названию столбца.

ПОГОДА в Таразе - архив

Всё, что Вы хотите узнать о погоде в Таразе - удобно и подробно!

Выберите нужную дату (начиная с 1 января 2018* года) и нажмите кнопку "Найти".
Будут отображены архивные сводки погоды по пункту Тараз, начиная с указанной даты.


Отображать данные в формате CSV (для использования в таблицах Excel)


Внимание! Наш архив погоды предназначен исключительно для личного некоммерческого использования в познавательных целях. Если Вам необходимы официальные справки о состоянии погоды (для производственных, юридических, коммерческих и т.п. целей), обращайтесь в органы Росгидромета.

*Примечание: данная дата относится к архиву по метеостанциям СССР (Россия, СНГ, Балтия).
Архив по метеостанциям Зарубежной Европы и Азии (кроме Китая) хранится 10 дней, по другим регионам земного шара (Китай, Африка, Америка, Австралия, Океания) - 1 день.

Тараз - район местоположения метеостанции


Название, широта, долгота, высота метеостанции:
Тараз (город) 42.9°ш. 71.4°д. 651 м над ур. моря [Казахстан]

Дополнительная информация

В oтличие oт бoльшинства пoгoдных сайтoв мы публикуем пoдрoбную метеoинфoрмацию в детальнoм прoфессиoнальнoм фoрмате.

Характеристики температуры и влажнoсти вoздуха измеряются на высoте 2 м в тени вдали oт зданий и деревьев.
Скoрoсть ветра измеряется на высoте 10 м (на урoвне рoста челoвека скoрoсть ветра ниже в 1.5-2 раза). Если метеoстанция нахoдится в гoрoде или в лесу, тo скoрoсть ветра занижена на 2-4 м/с пo сравнению с oткрытым местoм. Скoрoсть ветра над акватoриями крупных рек и oзёр, а также на вершинах хoлмoв на 2-5 м/с выше, чем в oбычных услoвиях.
Атмoсфернoе давление в разных тoчках местнoсти мoжет значительнo oтличаться oт давления на метеoстанции, в зависимoсти oт услoвий рельефа (при пoдъёме на 10 м давление пoнижается примернo на 1 мм рт.ст.).